WetterOnline ( http://www.wetteronline.ch )

Wetter aktuell Hamburg

Aktuelles Wetter: Quickborn (17m)

6-stündlich | Neueste Meldungen
Ortszeit Temperatur Wetter
So, 20.01. 13:00 -0.5° C leicht bewölkt
So, 20.01. 7:00 -5.2° C bedeckt
So, 20.01. 1:00 -6.3° C leicht bewölkt
Sa, 19.01. 19:00 -3.6° C leicht bewölkt
Sa, 19.01. 13:00 0.7° C leicht bewölkt
Sa, 19.01. 7:00 -5.5° C wolkig
Sa, 19.01. 1:00 -5.5° C Nebel
Fr, 18.01. 19:00 -2.8° C Nebel
Ortszeit Temperatur Wetter
So, 20.01. 13:00 -0.5° C leicht bewölkt
So, 20.01. 12:50 -0.5° C leicht bewölkt
So, 20.01. 12:40 -0.9° C leicht bewölkt
So, 20.01. 12:30 -1.8° C leicht bewölkt
So, 20.01. 12:20 -1.8° C leicht bewölkt
So, 20.01. 12:10 -2.2° C fast wolkenlos
So, 20.01. 12:00 -2.1° C wolkig
So, 20.01. 11:30 -2.2° C bedeckt
So, 20.01. 11:00 -2.8° C bedeckt
So, 20.01. 10:30 -3.2° C bedeckt
So, 20.01. 10:00 -3.8° C bedeckt
Ortszeit Relative Feuchte Sichtweite
So, 20.01. 13:00 78% 7 km
So, 20.01. 7:00 95% 3.5 km
So, 20.01. 1:00 95% 2.5 km
Sa, 19.01. 19:00 96% 4.8 km
Sa, 19.01. 13:00 74% 11 km
Sa, 19.01. 7:00 93% 5.0 km
Sa, 19.01. 1:00 95% 0.9 km
Fr, 18.01. 19:00 96% 0.2 km
Ortszeit Relative Feuchte Sichtweite
So, 20.01. 13:00 78% 7 km
So, 20.01. 12:50 78% -
So, 20.01. 12:40 81% -
So, 20.01. 12:30 87% 6 km
So, 20.01. 12:20 87% -
So, 20.01. 12:10 88% -
So, 20.01. 12:00 88% 6 km
So, 20.01. 11:30 89% 5.0 km
So, 20.01. 11:00 90% 5.0 km
So, 20.01. 10:30 91% 4.9 km
So, 20.01. 10:00 90% 4.6 km
Ortszeit Niederschlagsmenge Niederschlagsart
So, 20.01. 13:00 0.0 l/m2 in 6 Std. -
So, 20.01. 7:00 0.0 l/m2 in 12 Std. -
So, 20.01. 1:00 0.0 l/m2 in 6 Std. -
Sa, 19.01. 19:00 0.0 l/m2 in 12 Std. -
Sa, 19.01. 13:00 0.0 l/m2 in 6 Std. -
Sa, 19.01. 7:00 0.0 l/m2 in 12 Std. -
Sa, 19.01. 1:00 0.0 l/m2 in 6 Std. -
Fr, 18.01. 19:00 0.2 l/m2 in 12 Std. Schnee, Regen
Ortszeit Niederschlagsmenge Niederschlagsart
So, 20.01. 13:00 0.0 l/m2 in 1 Std. -
So, 20.01. 12:50 keine Meldung -
So, 20.01. 12:40 keine Meldung -
So, 20.01. 12:30 0.0 l/m2 in 1 Std. -
So, 20.01. 12:20 keine Meldung -
So, 20.01. 12:10 keine Meldung -
So, 20.01. 12:00 0.0 l/m2 in 1 Std. -
So, 20.01. 11:30 0.0 l/m2 in 1 Std. -
So, 20.01. 11:00 0.0 l/m2 in 1 Std. -
So, 20.01. 10:30 0.0 l/m2 in 1 Std. -
So, 20.01. 10:00 0.0 l/m2 in 1 Std. -
Ortszeit Stärke Spitze Richtung
km/h Bft. km/h Grad Sektor
So, 20.01. 13:00 4 1 7 120° SO
So, 20.01. 7:00 2 1 6 110° O
So, 20.01. 1:00 2 1 7 50° NO
Sa, 19.01. 19:00 4 1 7 120° SO
Sa, 19.01. 13:00 4 1 7 160° S
Sa, 19.01. 7:00 4 1 7 180° S
Sa, 19.01. 1:00 6 1 9 200° S
Fr, 18.01. 19:00 6 1 20 190° S
Ortszeit Stärke Spitze Richtung
km/h Bft. km/h Grad Sektor
So, 20.01. 13:00 4 1 7 120° SO
So, 20.01. 12:50 4 1 - 120° SO
So, 20.01. 12:40 4 1 - 120° SO
So, 20.01. 12:30 6 1 7 50° NO
So, 20.01. 12:20 6 1 - 50° NO
So, 20.01. 12:10 6 1 - 50° NO
So, 20.01. 12:00 4 1 4 20° N
So, 20.01. 11:30 0 0 4 - -
So, 20.01. 11:00 4 1 7 130° SO
So, 20.01. 10:30 4 1 4 50° NO
So, 20.01. 10:00 0 0 4 - -
Ortszeit Untergrenze Bedeckung Gattung
total tief tief mittel hoch
So, 20.01. 13:00 3600 m 2/8 2/8 - - -
So, 20.01. 7:00 3900 m 8/8 8/8 - - -
So, 20.01. 1:00 2100 m 3/8 1/8 - - -
Sa, 19.01. 19:00 2400 m 3/8 1/8 - - -
Sa, 19.01. 13:00 9000 m 6/8 0/8 - - -
Sa, 19.01. 7:00 810 m 5/8 5/8 - - -
Sa, 19.01. 1:00 2100 m 5/8 - - - -
Fr, 18.01. 19:00 300 m 7/8 5/8 - - -
Ortszeit Bedeckungsgrad in Achtel und Wolkenuntergrenze
So, 20.01. 13:00 2(3600m)
So, 20.01. 12:50 2(3600m)
So, 20.01. 12:40 3(3600m)
So, 20.01. 12:30 1(60m) 4(3600m)
So, 20.01. 12:20 1(60m) 2(3600m)
So, 20.01. 12:10 1(60m) 1(3600m)
So, 20.01. 12:00 5(3600m) 4(3600m)
So, 20.01. 11:30 8(3600m)
So, 20.01. 11:00 8(3600m)
So, 20.01. 10:30 8(3600m)
So, 20.01. 10:00 8(3600m)
Ortszeit Luftdruck NN (hPa) Tendenz (hPa in 3 Std.)
So, 20.01. 13:00 1020 + 0,7
So, 20.01. 7:00 1018 - 0,1
So, 20.01. 1:00 1018 0,0
Sa, 19.01. 19:00 1018 - 0,2
Sa, 19.01. 13:00 1020 - 0,5
Sa, 19.01. 7:00 1020 - 0,2
Sa, 19.01. 1:00 1020 + 0,2
Fr, 18.01. 19:00 1019 + 0,6
Ortszeit Luftdruck NN (hPa) Tendenz (hPa in 3 Std.)
So, 20.01. 13:00 1020 + 0,7
So, 20.01. 12:50 1020 keine Meldung
So, 20.01. 12:40 1021 keine Meldung
So, 20.01. 12:30 1020 + 1,0
So, 20.01. 12:20 1020 keine Meldung
So, 20.01. 12:10 1020 keine Meldung
So, 20.01. 12:00 1020 + 1,3
So, 20.01. 11:30 1020 + 1,5
So, 20.01. 11:00 1020 + 1,4
So, 20.01. 10:30 1020 + 1,6
So, 20.01. 10:00 1020 + 1,5
Ortszeit Schneehöhe (cm)
So, 20.01. 13:00 2
So, 20.01. 7:00 2
So, 20.01. 1:00 2
Sa, 19.01. 19:00 2
Sa, 19.01. 13:00 2
Sa, 19.01. 7:00 2
Sa, 19.01. 1:00 2
Fr, 18.01. 19:00 2
Ortszeit Schneehöhe (cm)
So, 20.01. 13:00 2
So, 20.01. 12:50 2
So, 20.01. 12:40 2
So, 20.01. 12:30 2
So, 20.01. 12:20 2
So, 20.01. 12:10 2
So, 20.01. 12:00 2
So, 20.01. 11:30 2
So, 20.01. 11:00 2
So, 20.01. 10:30 2
So, 20.01. 10:00 2
Link zu dieser Seite / Seite empfehlen

Das Wetter in ...